{"data":{"norad_id":65792,"epoch":"2026-05-25T03:19:11.199648Z","epoch_age_seconds":73155,"freshness":"FRESH","line1":"1 65792U 25218B   26145.13832407  .00003779  00000+0  26577-3 0  9998","line2":"2 65792  97.4504   7.9386 0002672  77.1180 283.0346 15.05656726 36473","mean_motion":15.05656726,"eccentricity":0.0002672,"inclination_deg":97.4504,"raan_deg":7.9386,"arg_perigee_deg":77.118,"mean_anomaly_deg":283.0346,"bstar":0.00026577,"rev_number":3647,"period_min":95.639329678125,"perigee_km":547.63946070365,"apogee_km":551.34158485183,"semimajor_km":6927.6275227777,"source":"CELESTRAK","updated_at":"2026-05-25T13:38:20.935805Z"}}